Regional Weather Roundup
Issued by NWS

Home | Current Version | Previous Version | Text Only | Print | Product List | Glossary On
Versions: 1 2 3 4 5 6 7 8 9 10 11 12 13 14 15 16 17 18 19 20 21 22 23 24 25 26 27 28 29 30 31 32 33 34 35 36 37 38 39 40 41 42 43 44 45 46 47 48 49 50
000
ASUS45 KBOU 201110
RWRCO

WEATHER ROUNDUP FOR COLORADO
NATIONAL WEATHER SERVICE DENVER/BOULDER CO
500 AM MDT WED MAR 20 2019

NOTE: "FAIR" INDICATES FEW OR NO CLOUDS BELOW 12000 FEET WITH NO
SIGNIFICANT WEATHER AND/OR OBSTRUCTIONS TO VISIBILITY.

COZ001>005-013-030-031-201200-
...NORTHWEST COLORADO...

CITY           SKY/WX    TMP DP  RH WIND       PRES   REMARKS
CRAIG          FAIR       7   3  84 SW3       30.34F
HAYDEN         FAIR      15   7  70 E12       30.34S WCI   2
MEEKER         FAIR      15   8  73 NE3       30.32S
RANGELY        FAIR      19  15  84 CALM      30.33S
RABBIT EARS PA FAIR      18 -18  19 S5        30.27S WCI  11
STEAMBOAT SPGS FAIR      11   7  83 CALM      30.34S
WALDEN         FAIR      -6 -15  65 SE6       30.34F WCI -18
$$

COZ006>008-011-201200-
...WEST CENTRAL VALLEYS...

CITY           SKY/WX    TMP DP  RH WIND       PRES   REMARKS
GRAND JUNCTION FAIR      33  15  47 SE9       30.27S WCI  25
MONTROSE       FAIR      25  17  72 SE3       30.31R
EAGLE          FAIR      18  13  80 CALM      30.38S
RIFLE          FAIR      24  16  71 CALM      30.32S
DELTA          FAIR      28  15  57 N3        30.30R
NUCLA          FAIR      30  18  59 CALM      30.27S
$$

COZ017>023-064>068-201200-
...SOUTHWEST COLORADO...

CITY           SKY/WX    TMP DP  RH WIND       PRES   REMARKS
DURANGO        FAIR      27  17  66 W3        30.23R
CORTEZ         FAIR      24  18  77 E5        30.22R WCI  18
PAGOSA SPRINGS FAIR      25   8  49 CALM      30.26R
TELLURIDE      FAIR      21   3  45 SE6       30.27R WCI  14
WOLF CREEK PAS FAIR      18  -4  38 SW6       30.33S WCI   9
$$

COZ009-010-012-014-032>034-037-058>063-201200-
...CENTRAL COLORADO...

CITY           SKY/WX    TMP DP  RH WIND       PRES   REMARKS
ASPEN          FAIR      16   5  62 S7        30.29S WCI   6
BUENA VISTA    FAIR      19   2  49 NW9       30.29S WCI   8
COPPER MTN     FAIR      19 -35   8 S3        30.27S
BERTHOUD PASS  FAIR       5  -4  66 N7        30.24R WCI  -7
COTTONWOOD PAS FAIR      23 -26  10 W6        30.27R WCI  16
GUNNISON       FAIR      10   6  84 NE5       30.33S WCI   2
GRANBY         FAIR       2  -5  74 SE3       30.36S
KREMMLING      FAIR      10   9  92 CALM      30.39R
LEADVILLE      FAIR      -2 -14  56 NE6       30.28R WCI -14
MONARCH PASS   FAIR      14  -9  34 SW8       30.37S WCI   3
SALIDA         FAIR      24   8  49 NW9       30.38S WCI  14
SUNLIGHT       FAIR      12   7  79 E8        30.31S WCI   1
WILKERSON PASS FAIR      18 -26  13 N8        30.28S WCI   7
$$

COZ069>075-201200-
...SAN LUIS VALLEY/SANGRE DE CRISTO MOUNTAINS...

CITY           SKY/WX    TMP DP  RH WIND       PRES   REMARKS
ALAMOSA        FAIR      21  17  84 CALM      30.27S
DEL NORTE      FAIR      22   9  58 W16       30.28S WCI   8
LA VETA PASS   NOT AVBL
SAGUACHE       FAIR      23  12  63 CALM      30.28R
$$

COZ035-036-038>040-201200-
...NORTHERN COLORADO FRONT RANGE...

CITY           SKY/WX    TMP DP  RH WIND       PRES   REMARKS
DENVER INTL AP FAIR      28  17  63 SW13      30.25S WCI  17
AURORA         CLEAR     25  16  69 S8        30.26R WCI  16
FRONT RANGE AP FAIR      31  19  60 SW13      30.26S WCI  22
ERIE MUNI ARPT FAIR      19  15  84 SW5       30.32S WCI  12
BOULDER MUN AP FAIR      28  10  47 SW3       30.25F
CENTENNIAL     FAIR      26  13  57 SW3       30.26S
BROOMFIELD     FAIR      30   7  37 SW6       30.26R WCI  24
FORT COLLINS   FAIR      26  14  60 CALM      30.26S
LONGMONT       FAIR      23  14  68 CALM      30.28S
$$

COZ041-046-047-076>085-087-088-201200-
...PIKES PEAK/PALMER DIVIDE AND SOUTHERN FOOTHILLS...

CITY           SKY/WX    TMP DP  RH WIND       PRES   REMARKS
COLO. SPRINGS  FAIR      21  13  71 N7        30.28S WCI  12
A. F. ACADEMY  FAIR      15  11  82 N9        30.25S WCI   4
SCHRIEVER AFB  NOT AVBL
CHEYENNE MTN   FAIR      25  14  63 CALM      30.21S
ELLICOTT         N/A    N/A N/A N/A N5        30.26S
FALCON         FAIR      21  11  65 W9        30.27S WCI  10
FORT CARSON    FAIR      22  17  80 N6        30.27S WCI  15
LIMON          FAIR      23  19  85 NW9       30.25S WCI  13
MONUMENT HILL  FAIR      21  10  63 MISG      30.27R
CANON CITY     NOT AVBL
WALSENBURG     NOT AVBL
TRINIDAD       FAIR      25  22  88 W7        30.29S WCI  17
$$

COZ042>045-048>051-090-091-201200-
...NORTHEAST COLORADO...

CITY           SKY/WX    TMP DP  RH WIND       PRES   REMARKS
GREELEY ARPT   FAIR      19  13  77 CALM      30.27S
AKRON          FAIR      24  20  84 W14       30.23S WCI  12
BURLINGTON     FAIR      22  18  85 W10       30.25S WCI  11
WRAY           FAIR      25  21  86 W9        30.24F WCI  15
YUMA           FAIR      21  19  93 W9        30.23F WCI  11
STERLING       FAIR      23  19  86 CALM      30.24F
HOLYOKE        FAIR      28  23  80 W12       30.23S WCI  18
FORT MORGAN      N/A     20  15  80 W8        30.26S WCI  10
$$

COZ086-089-092>099-201200-
...SOUTHEAST COLORADO...

CITY           SKY/WX    TMP DP  RH WIND       PRES   REMARKS
PUEBLO         FAIR      22  17  81 CALM      30.29F
LA JUNTA       FAIR      27  20  75 W12       30.29S WCI  17
LAMAR          FAIR      21  16  81 W6        30.27F WCI  13
SPRINGFIELD      N/A     22  20  92 SW7       30.27  WCI  13
$$



USA.gov is the U.S. government's official web portal to all federal, state and local government web resources and services.